• In Hungary
  • List of Countries
  • For 7 days
  • Water Temperature
  • Satellite Maps
  • Weather Map
  • News
  • Weather Widgets
  • user-avatar
    Login

    Hourly Weather Dallas

    Today, 19 February, Monday

    Time Temperature Precipitation Wind Pressure Humidity
    00:00 +18°C° 0.1 mm 8 mps 747 mmHg 90%
    01:00 +18°C° 0.3 mm 8 mps 747 mmHg 89%
    02:00 +18°C° 0.3 mm 8 mps 746 mmHg 88%
    03:00 +18°C° 0.3 mm 9 mps 746 mmHg 88%
    04:00 +18°C° 0.1 mm 9 mps 746 mmHg 89%
    05:00 +18°C° 0.1 mm 8 mps 746 mmHg 89%
    06:00 +18°C° 0.1 mm 8 mps 746 mmHg 90%
    07:00 +18°C° 0.4 mm 8 mps 746 mmHg 90%
    08:00 +20°C° 0.4 mm 7 mps 747 mmHg 90%
    09:00 +20°C° 0.4 mm 7 mps 747 mmHg 90%
    10:00 +20°C° 0.3 mm 7 mps 747 mmHg 89%
    11:00 +20°C° 0.3 mm 7 mps 747 mmHg 88%
    12:00 +21°C° 0.3 mm 7 mps 747 mmHg 86%
    13:00 +21°C° 0.6 mm 7 mps 747 mmHg 86%
    14:00 +21°C° 0.6 mm 7 mps 746 mmHg 86%
    15:00 +21°C° 0.6 mm 7 mps 746 mmHg 86%
    16:00 +21°C° 0.2 mm 7 mps 746 mmHg 87%
    17:00 +21°C° 0.2 mm 7 mps 746 mmHg 88%
    18:00 +21°C° 0.2 mm 6 mps 746 mmHg 89%
    19:00 +21°C° 0.7 mm 7 mps 746 mmHg 89%
    20:00 +21°C° 0.7 mm 7 mps 746 mmHg 89%
    21:00 +21°C° 0.7 mm 7 mps 746 mmHg 89%
    22:00 +21°C° 1.6 mm 7 mps 746 mmHg 89%
    23:00 +21°C° 1.6 mm 7 mps 746 mmHg 90%

    Tomorrow, 20 February, Tuesday

    Time Temperature Precipitation Wind Pressure Humidity
    00:00 +21°C° 1.6 mm 8 mps 746 mmHg 90%
    01:00 +21°C° 1.1 mm 8 mps 746 mmHg 90%
    02:00 +21°C° 1.1 mm 8 mps 746 mmHg 90%
    03:00 +21°C° 1.1 mm 8 mps 746 mmHg 90%
    04:00 +21°C° 1.8 mm 8 mps 746 mmHg 89%
    05:00 +21°C° 1.8 mm 8 mps 746 mmHg 89%
    06:00 +21°C° 1.8 mm 8 mps 746 mmHg 88%
    07:00 +21°C° 0.6 mm 8 mps 746 mmHg 87%
    08:00 +21°C° 0.6 mm 9 mps 747 mmHg 86%
    09:00 +21°C° 0.6 mm 9 mps 747 mmHg 86%
    10:00 +21°C° 1.1 mm 9 mps 748 mmHg 84%
    11:00 +22°C° 1.1 mm 9 mps 748 mmHg 82%
    12:00 +22°C° 1.1 mm 9 mps 748 mmHg 80%
    13:00 +22°C° 1.1 mm 9 mps 747 mmHg 81%
    14:00 +22°C° 1.1 mm 8 mps 747 mmHg 81%
    15:00 +23°C° 1.1 mm 8 mps 746 mmHg 82%
    16:00 +22°C° 0.7 mm 7 mps 747 mmHg 83%
    17:00 +22°C° 0.7 mm 6 mps 747 mmHg 83%
    18:00 +22°C° 0.7 mm 5 mps 747 mmHg 84%
    19:00 +22°C° 0.6 mm 4 mps 747 mmHg 86%
    20:00 +21°C° 0.6 mm 4 mps 748 mmHg 88%
    21:00 +21°C° 0.6 mm 4 mps 748 mmHg 91%
    22:00 +20°C° 0.2 mm 3 mps 749 mmHg 91%
    23:00 +20°C° 0.2 mm 3 mps 749 mmHg 92%

    Day after tomorrow, 21 February, Wednesday

    Time Temperature Precipitation Wind Pressure Humidity
    00:00 +20°C° 0.2 mm 2 mps 750 mmHg 93%
    01:00 +19°C° 0.6 mm 3 mps 750 mmHg 91%
    02:00 +18°C° 0.6 mm 3 mps 751 mmHg 90%
    03:00 +18°C° 0.6 mm 3 mps 751 mmHg 88%
    04:00 +15°C° 0.2 mm 4 mps 752 mmHg 86%
    05:00 +14°C° 0.2 mm 5 mps 752 mmHg 84%
    06:00 +11°C° 0.2 mm 6 mps 753 mmHg 82%
    07:00 +10°C° 0.1 mm 6 mps 754 mmHg 80%
    08:00 +9°C° 0.1 mm 7 mps 755 mmHg 78%
    09:00 +8°C° 0.1 mm 7 mps 756 mmHg 76%
    10:00 +8°C° 0.1 mm 7 mps 756 mmHg 75%
    11:00 +8°C° 0.1 mm 7 mps 756 mmHg 74%
    12:00 +8°C° 0.1 mm 7 mps 756 mmHg 73%
    13:00 +8°C° 0.5 mm 6 mps 756 mmHg 74%
    14:00 +8°C° 0.5 mm 6 mps 755 mmHg 75%
    15:00 +8°C° 0.5 mm 6 mps 755 mmHg 76%
    16:00 +8°C° 0.8 mm 6 mps 755 mmHg 78%
    17:00 +8°C° 0.8 mm 6 mps 755 mmHg 80%
    18:00 +7°C° 0.8 mm 5 mps 756 mmHg 82%
    19:00 +7°C° 0.4 mm 5 mps 756 mmHg 83%
    20:00 +7°C° 0.4 mm 5 mps 756 mmHg 84%
    21:00 +7°C° 0.4 mm 5 mps 757 mmHg 85%
    22:00 +7°C° 0 mm 5 mps 757 mmHg 85%
    23:00 +7°C° 0 mm 4 mps 757 mmHg 85%

    22 February, Thursday

    Time Temperature Precipitation Wind Pressure Humidity
    00:00 +8°C° 0 mm 3 mps 757 mmHg 86%
    01:00 +9°C° 0 mm 3 mps 757 mmHg 86%
    02:00 +9°C° 0 mm 3 mps 756 mmHg 87%
    03:00 +9°C° 0 mm 3 mps 756 mmHg 88%
    04:00 +9°C° 0 mm 3 mps 756 mmHg 89%
    05:00 +10°C° 0 mm 3 mps 756 mmHg 90%
    06:00 +10°C° 0 mm 3 mps 756 mmHg 91%
    07:00 +11°C° 0 mm 3 mps 756 mmHg 92%
    08:00 +11°C° 0 mm 3 mps 756 mmHg 92%
    09:00 +12°C° 0 mm 3 mps 757 mmHg 93%
    10:00 +12°C° 0.1 mm 3 mps 756 mmHg 93%
    11:00 +12°C° 0.1 mm 3 mps 756 mmHg 93%
    12:00 +14°C° 0.1 mm 2 mps 756 mmHg 94%
    13:00 +14°C° 0.5 mm 2 mps 755 mmHg 94%
    14:00 +14°C° 0.5 mm 2 mps 754 mmHg 95%
    15:00 +14°C° 0.5 mm 2 mps 753 mmHg 96%
    16:00 +15°C° 0.2 mm 2 mps 753 mmHg 96%
    17:00 +15°C° 0.2 mm 2 mps 753 mmHg 97%
    18:00 +15°C° 0.2 mm 2 mps 753 mmHg 97%
    19:00 +15°C° 1.8 mm 2 mps 753 mmHg 97%
    20:00 +16°C° 1.8 mm 2 mps 753 mmHg 97%
    21:00 +16°C° 1.8 mm 1 mps 754 mmHg 98%
    22:00 +16°C° 1 mm 1 mps 753 mmHg 97%
    23:00 +16°C° 1 mm 1 mps 753 mmHg 97%

    23 February, Friday

    Time Temperature Precipitation Wind Pressure Humidity
    00:00 +16°C° 1 mm 1 mps 752 mmHg 97%
    01:00 +16°C° 3.2 mm 2 mps 752 mmHg 97%
    02:00 +17°C° 3.2 mm 2 mps 752 mmHg 98%
    03:00 +17°C° 3.2 mm 2 mps 752 mmHg 98%
    04:00 +17°C° 0.9 mm 2 mps 752 mmHg 98%
    05:00 +17°C° 0.9 mm 2 mps 752 mmHg 97%
    06:00 +18°C° 0.9 mm 1 mps 752 mmHg 97%
    07:00 +18°C° 0.2 mm 2 mps 752 mmHg 96%
    08:00 +18°C° 0.2 mm 3 mps 752 mmHg 95%
    09:00 +19°C° 0.2 mm 4 mps 752 mmHg 94%
    10:00 +20°C° 0.2 mm 5 mps 752 mmHg 89%
    11:00 +21°C° 0.2 mm 6 mps 751 mmHg 84%
    12:00 +22°C° 0.2 mm 7 mps 751 mmHg 80%
    13:00 +23°C° 0.2 mm 7 mps 750 mmHg 77%
    14:00 +23°C° 0.2 mm 7 mps 749 mmHg 75%
    15:00 +23°C° 0.2 mm 7 mps 749 mmHg 73%
    16:00 +23°C° 0.4 mm 7 mps 748 mmHg 75%
    17:00 +22°C° 0.4 mm 6 mps 748 mmHg 78%
    18:00 +22°C° 0.4 mm 5 mps 748 mmHg 80%
    19:00 +21°C° 0.1 mm 5 mps 748 mmHg 82%
    20:00 +21°C° 0.1 mm 5 mps 748 mmHg 84%
    21:00 +21°C° 0.1 mm 5 mps 748 mmHg 86%
    22:00 +21°C° 0 mm 5 mps 748 mmHg 87%
    23:00 +21°C° 0 mm 6 mps 748 mmHg 88%

    24 February, Saturday

    Time Temperature Precipitation Wind Pressure Humidity
    00:00 +21°C° 0 mm 6 mps 747 mmHg 89%
    01:00 +21°C° 0 mm 6 mps 747 mmHg 90%
    02:00 +21°C° 0 mm 6 mps 746 mmHg 91%
    03:00 +21°C° 0 mm 7 mps 746 mmHg 92%
    04:00 +21°C° 0.3 mm 7 mps 746 mmHg 92%
    05:00 +21°C° 0.3 mm 6 mps 746 mmHg 91%
    06:00 +21°C° 0.3 mm 6 mps 745 mmHg 91%
    07:00 +21°C° 0.2 mm 6 mps 746 mmHg 90%
    08:00 +21°C° 0.2 mm 7 mps 746 mmHg 90%
    09:00 +21°C° 0.2 mm 7 mps 746 mmHg 90%
    10:00 +22°C° 1.6 mm 7 mps 746 mmHg 82%
    11:00 +22°C° 1.6 mm 7 mps 745 mmHg 75%
    12:00 +23°C° 1.6 mm 8 mps 745 mmHg 68%
    13:00 +23°C° 0.3 mm 7 mps 745 mmHg 56%
    14:00 +24°C° 0.3 mm 7 mps 745 mmHg 45%
    15:00 +24°C° 0.3 mm 7 mps 745 mmHg 33%
    16:00 +23°C° 0 mm 6 mps 745 mmHg 35%
    17:00 +22°C° 0 mm 6 mps 745 mmHg 36%
    18:00 +21°C° 0 mm 6 mps 745 mmHg 37%
    19:00 +19°C° 0 mm 5 mps 746 mmHg 35%
    20:00 +17°C° 0 mm 5 mps 746 mmHg 33%
    21:00 +16°C° 0 mm 5 mps 747 mmHg 31%
    22:00 +15°C° 0 mm 5 mps 748 mmHg 41%
    23:00 +13°C° 0 mm 6 mps 749 mmHg 50%
    Show more